Regional Weather Roundup
Issued by NWS

Home | Current Version | Previous Version | Text Only | Print | Product List | Glossary On
Versions: 1 2 3 4 5 6 7 8 9 10 11 12 13 14 15 16 17 18 19 20 21 22 23 24 25 26 27
000
ASUS46 KSEW 251810
RWRWA

WASHINGTON REGIONAL WEATHER ROUNDUP
NATIONAL WEATHER SERVICE SEATTLE WA
1100 AM PDT MON SEP 25 2017

NOTE:"FAIR" INDICATES FEW OR NO CLOUDS BELOW 12,000 FEET WITH NO
SIGNIFICANT WEATHER AND/OR OBSTRUCTIONS TO VISIBILITY.

WAZ507-509-555>559-251900-
SEATTLE, TACOMA, EVERETT, AND VICINITY

CITY           SKY/WX    TMP DP  RH WIND       PRES   REMARKS
EVERETT        CLOUDY    58  55  90 SE8       30.12R
6HR MIN TEMP:  55; 6HR MAX TEMP:  58; 6HR PCP:  0.05;

BOEING FIELD   CLOUDY    61  53  75 S6        30.11R
6HR MIN TEMP:  57; 6HR MAX TEMP:  61; 6HR PCP:  0.02;

RENTON         CLOUDY    62  56  80 SE7       30.11R
6HR MIN TEMP:  57; 6HR MAX TEMP:  62; 6HR PCP: TRACE;

SEATAC AIRPORT CLOUDY    59  53  80 S8        30.12R
6HR MIN TEMP:  56; 6HR MAX TEMP:  59; 6HR PCP:  0.01;

JBLM-MCCHORD   CLOUDY    60  57  89 SW6       30.12S
6HR MIN TEMP:  53; 6HR MAX TEMP:  60; 6HR PCP: TRACE;

PUYALLUP       PTSUNNY   61  55  82 CALM      30.12S
BREMERTON      CLOUDY    55  54  96 SW5       30.11S
6HR MIN TEMP:  53; 6HR MAX TEMP:  55; 6HR PCP: TRACE;

JBLM-FT LEWIS  PTSUNNY   60  56  86 S5        30.11S
6HR MIN TEMP:  53; 6HR MAX TEMP:  60; 6HR PCP: TRACE;

TACOMA NARROWS CLOUDY    56  53  90 S6        30.12R
6HR MIN TEMP:  54; 6HR MAX TEMP:  56; 6HR PCP: TRACE;

$$

WAZ001-503-506-510-514-515-251900-
NORTH INTERIOR

CITY           SKY/WX    TMP DP  RH WIND       PRES   REMARKS
BELLINGHAM     CLOUDY    58  57  97 SE8       30.10R
6HR MIN TEMP:  56; 6HR MAX TEMP:  58; 6HR PCP:  0.03;

FRIDAY HARBOR  LGT RAIN  58  58 100 SE5       30.11S
6HR MIN TEMP:  53; 6HR MAX TEMP:  57; 6HR PCP:  0.03;

EASTSOUND      CLOUDY    59  57  94 S8        30.09S
PORT ANGELES   CLOUDY    60  56  86 E6        30.10S
6HR MIN TEMP:  54; 6HR MAX TEMP:  60; 6HR PCP:  0.03;

EDIZ HOOK      CLOUDY    54  54  97 E6        30.10S
6HR MIN TEMP:  51; 6HR MAX TEMP:  56; 6HR PCP:  0.06;

PORT TOWNSEND  CLOUDY    59  55  88 E7        30.10S
NAS WHIDBEY    CLOUDY    62  55  77 SE5       30.14R
6HR MIN TEMP:  56; 6HR MAX TEMP:  62; 6HR PCP:  0.05;

ARLINGTON      CLOUDY    57  55  93 MISG      30.12R
6HR MIN TEMP:  53; 6HR MAX TEMP:  57; 6HR PCP:  0.05;

BURLINGTON     CLOUDY    57  57 100 E3        30.11R
$$

WAZ020-022-039-040-504-511-512-251900-
SOUTHWEST INTERIOR

CITY           SKY/WX    TMP DP  RH WIND       PRES   REMARKS
SHELTON        CLOUDY    58  56  93 SW8       30.09S
6HR MIN TEMP:  55; 6HR MAX TEMP:  58; 6HR PCP: TRACE;

OLYMPIA        CLOUDY    59  55  87 VRB3      30.12R
6HR MIN TEMP:  54; 6HR MAX TEMP:  59; 6HR PCP: TRACE;

CHEHALIS       PTSUNNY   61  55  82 CALM      30.13R
KELSO          LGT RAIN  60  54  80 S5        30.13F
6HR MIN TEMP:  54; 6HR MAX TEMP:  60; 6HR PCP: TRACE;

VANCOUVER      CLOUDY    62  54  74 CALM      30.13S
6HR MIN TEMP:  56; 6HR MAX TEMP:  62;

SCAPPOOSE, OR  CLOUDY    61  54  77 CALM      30.13S
6HR MIN TEMP:  53; 6HR MAX TEMP:  61; 6HR PCP: TRACE;

PORTLAND, OR   LGT RAIN  62  53  72 NE5       30.13F
6HR MIN TEMP:  55; 6HR MAX TEMP:  63; 6HR PCP: TRACE;

$$

WAZ021-516-517-251900-
WASHINGTON COAST

CITY           SKY/WX    TMP DP  RH WIND       PRES   REMARKS
FORKS          CLOUDY    59  58  96 CALM      30.07S
6HR MIN TEMP:  54; 6HR MAX TEMP:  59; 6HR PCP:  0.05;

HOQUIAM        CLOUDY    60  59  96 E6        30.11S FOG
6HR MIN TEMP:  57; 6HR MAX TEMP:  60; 6HR PCP:  0.04;

ASTORIA, OR    CLOUDY    60  57  89 CALM      30.11S
6HR MIN TEMP:  56; 6HR MAX TEMP:  60; 6HR PCP:  0.04;

$$

WAZ019-023-024-040-567>569-251900-
CASCADE MOUNTAINS AND COLUMBIA GORGE

CITY           SKY/WX    TMP DP  RH WIND       PRES   REMARKS
STAMPEDE PASS  NOT AVBL
TROUTDALE, OR  CLOUDY    62  53  72 CALM      30.13S
6HR MIN TEMP:  54; 6HR MAX TEMP:  62; 6HR PCP: TRACE;

HOOD RIVER, OR NOT AVBL
THE DALLES, OR PTSUNNY   66  49  54 CALM      30.06S
6HR MIN TEMP:  56; 6HR MAX TEMP:  67;

$$

WAZ026-027-041>044-520-521-251900-
EAST SLOPES

CITY           SKY/WX    TMP DP  RH WIND       PRES   REMARKS
OMAK           MOSUNNY   58  45  62 SE3       30.06F
6HR MIN TEMP:  42; 6HR MAX TEMP:  58;

WENATCHEE      CLOUDY    58  47  66 W3        30.06R
6HR MIN TEMP:  54; 6HR MAX TEMP:  59; 6HR PCP: TRACE;

ELLENSBURG     LGT RAIN  65  50  58 NW12      30.06S
6HR MIN TEMP:  54; 6HR MAX TEMP:  65; 6HR PCP: TRACE;

YAKIMA         CLOUDY    66  48  52 CALM      30.06S
6HR MIN TEMP:  51; 6HR MAX TEMP:  66;

SUNNYSIDE ARPT CLOUDY    61  46  58 CALM      30.06S
6HR MIN TEMP:  45; 6HR MAX TEMP:  61;

YAKIMA TC      MOCLDY    63  45  52 W3        30.04S
6HR MIN TEMP:  50; 6HR MAX TEMP:  63;

$$

WAZ028-034-035-251900-
COLUMBIA BASIN

CITY           SKY/WX    TMP DP  RH WIND       PRES   REMARKS
EPHRATA        PTSUNNY   63  39  41 NE3       30.05S
6HR MIN TEMP:  49; 6HR MAX TEMP:  63;

MOSES LAKE     MOSUNNY   63  42  46 CALM      30.06S
6HR MIN TEMP:  44; 6HR MAX TEMP:  63;

PASCO          PTSUNNY   67  47  48 CALM      30.05F
6HR MIN TEMP:  45; 6HR MAX TEMP:  67;

RICHLAND ARPT  MOCLDY    67  50  53 CALM      30.05F
6HR MIN TEMP:  47; 6HR MAX TEMP:  67;

HERMISTON, OR  PTSUNNY   65  47  52 VRB7      30.06S
6HR MIN TEMP:  46; 6HR MAX TEMP:  66;

$$

WAZ036>038-251900-
NORTHEAST WASHINGTON

CITY           SKY/WX    TMP DP  RH WIND       PRES   REMARKS
SPOKANE GEIGER PTSUNNY   61  43  51 S7        30.08S
6HR MIN TEMP:  51; 6HR MAX TEMP:  62;

SPOKANE FELTS  PTSUNNY   64  43  46 VRB3      30.08S
6HR MIN TEMP:  51; 6HR MAX TEMP:  64;

FAIRCHILD AFB  PTSUNNY   64  45  48 SE6       30.11R
COEURDALENE,ID CLOUDY    58  44  60 SE6       30.09S
6HR MIN TEMP:  50; 6HR MAX TEMP:  58;

DEER PARK      CLOUDY    58  44  60 SE3       30.09S
6HR MIN TEMP:  44; 6HR MAX TEMP:  58;

$$

WAZ029>033-251900-
SOUTHEAST WASHINGTON

CITY           SKY/WX    TMP DP  RH WIND       PRES   REMARKS
PULLMAN        PTSUNNY   60  40  47 S5        30.12S
6HR MIN TEMP:  50; 6HR MAX TEMP:  60;

LEWISTON, ID   MOSUNNY   62  45  53 E7        30.09F
6HR MIN TEMP:  53; 6HR MAX TEMP:  62;

WALLA WALLA    MOSUNNY   70  44  39 SW14      30.06F
6HR MIN TEMP:  52; 6HR MAX TEMP:  70;

PENDLETON, OR  PTSUNNY   68  41  37 SW9       30.07F
6HR MIN TEMP:  50; 6HR MAX TEMP:  68;

$$




USA.gov is the U.S. government's official web portal to all federal, state and local government web resources and services.